TimeEDT,TemperatureF,Dew PointF,Humidity,Sea Level PressureIn,VisibilityMPH,Wind Direction,Wind SpeedMPH,Gust SpeedMPH,PrecipitationIn,Events,Conditions,WindDirDegrees,DateUTC
12:54 AM,64.0,36.0,35,29.73,10.0,SSW,16.1,31.1,N/A,,Mostly Cloudy,210,2013-04-07 04:54:00
1:54 AM,62.1,37.9,41,29.74,10.0,WSW,18.4,32.2,0.00,Rain,Light Rain,240,2013-04-07 05:54:00
2:54 AM,59.0,42.1,53,29.74,10.0,WSW,12.7,27.6,0.01,,Mostly Cloudy,240,2013-04-07 06:54:00
3:54 AM,57.9,41.0,53,29.73,10.0,WSW,15.0,27.6,N/A,,Clear,250,2013-04-07 07:54:00
4:54 AM,57.0,43.0,59,29.75,10.0,WSW,15.0,23.0,N/A,,Clear,250,2013-04-07 08:54:00
5:54 AM,55.0,42.1,62,29.79,10.0,West,11.5,-,N/A,,Clear,260,2013-04-07 09:54:00
6:54 AM,53.1,42.1,66,29.82,10.0,West,9.2,-,N/A,,Clear,260,2013-04-07 10:54:00
7:54 AM,51.1,41.0,68,29.86,10.0,WNW,11.5,-,N/A,,Clear,290,2013-04-07 11:54:00
8:54 AM,48.9,42.1,77,29.89,8.0,WNW,11.5,-,N/A,,Clear,290,2013-04-07 12:54:00
9:54 AM,51.1,43.0,74,29.91,8.0,WNW,12.7,-,N/A,,Clear,300,2013-04-07 13:54:00
10:54 AM,54.0,42.1,64,29.92,10.0,NW,10.4,-,N/A,,Clear,320,2013-04-07 14:54:00
11:54 AM,57.9,39.9,51,29.93,10.0,NW,12.7,-,N/A,,Clear,310,2013-04-07 15:54:00
12:54 PM,62.1,39.9,44,29.94,10.0,WNW,11.5,18.4,N/A,,Clear,290,2013-04-07 16:54:00
1:54 PM,64.0,41.0,43,29.93,10.0,WNW,10.4,19.6,N/A,,Clear,290,2013-04-07 17:54:00
2:54 PM,66.9,39.9,37,29.93,10.0,NW,10.4,19.6,N/A,,Clear,320,2013-04-07 18:54:00
3:54 PM,69.1,37.9,32,29.93,10.0,West,12.7,-,N/A,,Clear,280,2013-04-07 19:54:00
4:54 PM,69.1,36.0,30,29.91,10.0,West,11.5,18.4,N/A,,Clear,280,2013-04-07 20:54:00
5:54 PM,68.0,35.1,30,29.92,10.0,West,4.6,-,N/A,,Clear,280,2013-04-07 21:54:00
6:54 PM,66.9,35.1,31,29.92,10.0,WNW,4.6,-,N/A,,Clear,300,2013-04-07 22:54:00
7:54 PM,66.0,36.0,33,29.91,10.0,Calm,Calm,-,N/A,,Clear,0,2013-04-07 23:54:00
8:54 PM,59.0,37.9,46,29.91,10.0,ENE,3.5,-,N/A,,Clear,70,2013-04-08 00:54:00
9:54 PM,57.0,37.0,47,29.92,10.0,ENE,5.8,-,N/A,,Clear,70,2013-04-08 01:54:00
10:54 PM,57.0,37.0,47,29.93,10.0,ENE,4.6,-,N/A,,Clear,70,2013-04-08 02:54:00
11:54 PM,54.0,37.0,53,29.93,10.0,East,4.6,-,N/A,,Clear,80,2013-04-08 03:54:00